Location: Byhalia Creek
(34.8270°N, 89.8040°W)
Time: 17:20:31
(UTC+00:00)

ERS-1 Rocket - Pass Details

Date: 22 April 2026
Orbit: 747 x 750 km, 98.2° (Epoch: 9 May)

Event Time Altitude Azimuth Distance (km) Brightness Sun altitude
Exits shadow 02:15:33 34° 153° (SSE) 1,227 3.6 -19.5°
Maximum altitude 02:17:45 74° 76° (ENE) 782 2.8 -19.9°
Drops below altitude 10° 02:22:45 10° 352° (N) 2,275 6.0 -20.7°
Sets 02:25:03 0° 350° (N) 3,203 6.8 -21.1°
